Conroe, TX

8:34 PM CST on February 21, 2017 (GMT -0600)
Montgomery County

Weather History for KCXO - April, 2013

Change the Weather History Date:

Monday, April 22, 2013

  Actual Average Record
Temperature  
Mean Temperature 62 °F -  
Max Temperature 78 °F 77 °F 91 °F (1999)
Min Temperature 46 °F 56 °F 42 °F (1998)
Degree Days  
Heating Degree Days 3    
Growing Degree Days 12 (Base 50)    
Moisture  
Dew Point 54 °F    
Average Humidity 76    
Maximum Humidity 100    
Minimum Humidity 46    
Precipitation  
Precipitation 0.00 in - - ()
Sea Level Pressure  
Sea Level Pressure 30.05 in    
Wind  
Wind Speed 4 mph (SSE)    
Max Wind Speed 15 mph    
Max Gust Speed 16 mph    
Visibility 10 miles    
Events      
Averages and records for this station are not official NWS values.
T = Trace of Precipitation, MM = Missing Value Source: NWS Daily Summary

Daily Weather History Graph

Daily Weather History Graph

Search for Another Location

Airport or City:

Trip Planner

Search our weather history database for the weather conditions in past years. The results will help you decide how hot, cold, wet, or windy it might be!

Date:

Astronomy

Apr. 22, 2013 Rise Set
Actual Time 6:46 AM CDT 7:53 PM CDT
Civil Twilight 6:21 AM CDT 8:18 PM CDT
Nautical Twilight 5:52 AM CDT 8:48 PM CDT
Astronomical Twilight 5:21 AM CDT 9:19 PM CDT
Moon 4:55 PM CDT 4:27 AM CDT
Length of Visible Light 13h 57m
Length of Day
13h 07m
Waxing Gibbous, 88% of the Moon is Illuminated
Apr 22
Waxing Gibbous
Apr 25
Full
May 2
Last Quarter
May 9
New
May 17
First Quarter

Hourly Weather History & Observations

Time (CDT) Temp. Dew Point Humidity Pressure Visibility Wind Dir Wind Speed Gust Speed Precip Events Conditions
12:53 AM 50.0 °F 50.0 °F 100% 30.14 in 9.0 mi Calm Calm - N/A   Clear
1:53 AM 48.9 °F 48.9 °F 100% 30.13 in 7.0 mi Calm Calm - N/A   Clear
2:53 AM 46.9 °F 46.9 °F 100% 30.10 in 7.0 mi Calm Calm - N/A   Clear
3:53 AM 46.9 °F 46.0 °F 97% 30.09 in 9.0 mi Calm Calm - N/A   Clear
4:53 AM 46.9 °F 46.9 °F 100% 30.09 in 9.0 mi Calm Calm - N/A   Clear
5:53 AM 46.0 °F 46.0 °F 100% 30.09 in 10.0 mi Calm Calm - N/A   Clear
6:53 AM 46.9 °F 46.0 °F 97% 30.10 in 9.0 mi Calm Calm - N/A   Clear
7:53 AM 51.1 °F 51.1 °F 100% 30.11 in 8.0 mi Calm Calm - N/A   Partly Cloudy
8:53 AM 61.0 °F 55.9 °F 83% 30.11 in 10.0 mi SE 5.8 mph - N/A   Scattered Clouds
9:53 AM 63.0 °F 57.9 °F 84% 30.12 in 10.0 mi SSE 5.8 mph - N/A   Scattered Clouds
10:53 AM 71.1 °F 59.0 °F 66% 30.12 in 10.0 mi South 8.1 mph - N/A   Scattered Clouds
11:09 AM 68.0 °F 57.2 °F 68% 30.12 in 10.0 mi SSE 9.2 mph - N/A   Mostly Cloudy
11:19 AM 71.6 °F 57.2 °F 60% 30.12 in 10.0 mi SSE 9.2 mph - N/A   Scattered Clouds
11:53 AM 72.0 °F 57.9 °F 61% 30.11 in 10.0 mi SSE 4.6 mph - N/A   Partly Cloudy
12:53 PM 70.0 °F 57.0 °F 63% 30.08 in 10.0 mi South 5.8 mph - N/A   Mostly Cloudy
1:53 PM 75.0 °F 57.0 °F 53% 30.05 in 10.0 mi SSE 9.2 mph - N/A   Mostly Cloudy
2:53 PM 77.0 °F 57.0 °F 50% 30.02 in 10.0 mi SSE 10.4 mph 16.1 mph N/A   Scattered Clouds
3:53 PM 78.1 °F 55.9 °F 46% 29.99 in 10.0 mi South 8.1 mph - N/A   Clear
4:53 PM 77.0 °F 57.0 °F 50% 29.96 in 10.0 mi ESE 5.8 mph - N/A   Clear
5:53 PM 77.0 °F 57.0 °F 50% 29.95 in 10.0 mi SSE 12.7 mph 16.1 mph N/A   Clear
6:53 PM 75.0 °F 57.0 °F 53% 29.94 in 10.0 mi SE 11.5 mph - N/A   Clear
7:53 PM 70.0 °F 57.0 °F 63% 29.94 in 10.0 mi SE 11.5 mph - N/A   Clear
8:53 PM 66.9 °F 59.0 °F 76% 29.96 in 10.0 mi SSE 15.0 mph - N/A   Clear
9:53 PM 64.0 °F 57.9 °F 80% 29.98 in 10.0 mi SE 6.9 mph - N/A   Clear
10:53 PM 62.1 °F 57.9 °F 86% 29.98 in 10.0 mi SE 5.8 mph - N/A   Clear
11:53 PM 57.9 °F 57.0 °F 97% 29.97 in 10.0 mi SE 5.8 mph - N/A   Clear